User: anonymous   Login
Location: Brno
(49.2000°N, 16.6330°E)
Time: 17:24:25
(UTC+02:00)
Language:

Meteor 1-4 Rocket - Orbit

View from above orbital plane
View from above orbital plane
View from above satellite
View from above satellite

Ground track
Ground track

The orbit data is extracted from the following two-line orbital elements,

1  4394U 70037B   17232.25849697 +.00001109 +00000-0 +38421-4 0  9995
2  4394 081.2429 299.6084 0039466 264.9248 094.7482 15.28181643575021
Epoch (UTC): 20 August 2017 06:12:14
Eccentricity: 0.0039466
inclination: 81.2429°
perigee height: 454 km
apogee height: 508 km
right ascension of ascending node: 299.6084°
argument of perigee: 264.9248°
revolutions per day: 15.28181643
mean anomaly at epoch: 94.7482°
orbit number at epoch: 57502

The dashed part of the orbit path shows where the satellite is in the earth's shadow,  

DLR